Olivia, MN

5:51 PM CST on November 18, 2017 (GMT -0600)
Olivia Regional

Weather History for KOVL - January, 2014

Change the Weather History Date:

Monday, January 27, 2014

  Actual Average (KRWF) Record (KRWF)
Temperature  
Mean Temperature -6 °F -  
Max Temperature -4 °F 23 °F 55 °F (1989)
Min Temperature -9 °F 2 °F -22 °F (1955)
Degree Days  
Heating Degree Days 72    
Moisture  
Dew Point -16 °F    
Average Humidity 68    
Maximum Humidity 71    
Minimum Humidity 60    
Precipitation  
Precipitation 0.00 in - - ()
Sea Level Pressure  
Sea Level Pressure 30.36 in    
Wind  
Wind Speed 20 mph (WNW)    
Max Wind Speed 33 mph    
Max Gust Speed 40 mph    
Visibility 8 miles    
Events Snow    
Averages and records for this station are not official NWS values.
T = Trace of Precipitation, MM = Missing Value Source: NWS Daily Summary

Daily Weather History Graph

Daily Weather History Graph

Search for Another Location

Airport or City:

Trip Planner

Search our weather history database for the weather conditions in past years. The results will help you decide how hot, cold, wet, or windy it might be!

Date:

Astronomy

Jan. 27, 2014 Rise Set
Actual Time 7:44 AM CST 5:21 PM CST
Civil Twilight 7:13 AM CST 5:53 PM CST
Nautical Twilight 6:37 AM CST 6:28 PM CST
Astronomical Twilight 6:03 AM CST 7:03 PM CST
Moon 4:28 AM CST (1/27) 2:06 PM CST (1/27)
Length of Visible Light 10h 40m
Length of Day
9h 36m
Waning Crescent, 14% of the Moon is Illuminated
Jan 27
Waning Crescent
Jan 30
New
Feb 6
First Quarter
Feb 14
Full
Feb 22
Last Quarter

Hourly Weather History & Observations

Time (CST) Temp. Windchill Dew Point Humidity Pressure Visibility Wind Dir Wind Speed Gust Speed Precip Events Conditions
12:14 AM -7.6 °F -36.1 °F -14.8 °F 71% 30.18 in 1.2 mi NW 29.9 mph 38.0 mph N/A Snow Light Snow
12:33 AM -7.6 °F -33.9 °F -14.8 °F 71% 30.18 in 1.8 mi NW 24.2 mph 40.3 mph N/A   Haze
12:53 AM -7.6 °F -37.3 °F -14.8 °F 71% 30.19 in 2.0 mi NW 33.4 mph 40.3 mph N/A   Haze
1:14 AM -7.6 °F -34.4 °F -14.8 °F 71% 30.20 in 1.2 mi NW 25.3 mph 39.1 mph N/A Snow Light Snow
1:33 AM -7.6 °F -34.4 °F -14.8 °F 71% 30.22 in 2.5 mi NW 25.3 mph 34.5 mph N/A   Haze
1:53 AM -7.6 °F -33.4 °F -14.8 °F 71% 30.23 in 4.0 mi NW 23.0 mph 33.4 mph N/A   Haze
2:14 AM -7.6 °F -33.4 °F -16.6 °F 65% 30.24 in 3.0 mi NNW 23.0 mph 34.5 mph N/A   Haze
2:33 AM -9.4 °F -35.2 °F -16.6 °F 71% 30.24 in 7.0 mi NNW 21.9 mph 29.9 mph N/A   Clear
2:54 AM -9.4 °F -34.1 °F -18.4 °F 65% 30.25 in 7.0 mi NW 19.6 mph 27.6 mph N/A   Clear
3:13 AM -9.4 °F -34.1 °F -16.6 °F 71% 30.26 in 10.0 mi NW 19.6 mph 26.5 mph N/A   Clear
3:33 AM -9.4 °F -32.8 °F -16.6 °F 71% 30.26 in 10.0 mi NW 17.3 mph - N/A   Clear
3:53 AM -9.4 °F -33.5 °F -16.6 °F 71% 30.27 in 10.0 mi NW 18.4 mph 27.6 mph N/A   Scattered Clouds
4:13 AM -7.6 °F -31.1 °F -14.8 °F 71% 30.28 in 7.0 mi NW 18.4 mph 26.5 mph N/A   Mostly Cloudy
4:33 AM -7.6 °F -32.9 °F -16.6 °F 65% 30.29 in 7.0 mi NW 21.9 mph 27.6 mph N/A   Scattered Clouds
4:53 AM -7.6 °F -35.3 °F -14.8 °F 71% 30.29 in 2.5 mi NW 27.6 mph 35.7 mph N/A   Haze
5:14 AM -9.4 °F -36.8 °F -16.6 °F 71% 30.30 in 3.0 mi NW 25.3 mph 29.9 mph N/A   Haze
5:33 AM -9.4 °F -35.8 °F -16.6 °F 71% 30.30 in 5.0 mi NW 23.0 mph 28.8 mph N/A   Haze
5:53 AM -9.4 °F -35.8 °F -16.6 °F 71% 30.31 in 2.5 mi NW 23.0 mph 29.9 mph N/A   Haze
6:14 AM -9.4 °F -34.1 °F -16.6 °F 71% 30.32 in 5.0 mi NW 19.6 mph 26.5 mph N/A   Haze
6:33 AM -9.4 °F -32.1 °F -16.6 °F 71% 30.33 in 2.5 mi NW 16.1 mph - N/A   Haze
6:53 AM -9.4 °F -34.1 °F -16.6 °F 71% 30.34 in 2.5 mi NW 19.6 mph 28.8 mph N/A   Haze
7:13 AM -9.4 °F -35.8 °F -16.6 °F 71% 30.35 in 7.0 mi NW 23.0 mph 29.9 mph N/A   Clear
7:33 AM -9.4 °F -34.1 °F -18.4 °F 65% 30.36 in 7.0 mi NW 19.6 mph 25.3 mph N/A   Clear
7:54 AM -9.4 °F -32.8 °F -18.4 °F 65% 30.37 in 10.0 mi NW 17.3 mph 25.3 mph N/A   Clear
8:13 AM -9.4 °F -31.4 °F -18.4 °F 65% 30.38 in 10.0 mi NW 15.0 mph - N/A   Clear
8:34 AM -9.4 °F -33.5 °F -18.4 °F 65% 30.40 in 10.0 mi NW 18.4 mph 24.2 mph N/A   Clear
8:53 AM -9.4 °F -33.5 °F -18.4 °F 65% 30.40 in 10.0 mi NW 18.4 mph 24.2 mph N/A   Clear
9:13 AM -9.4 °F -34.1 °F -16.6 °F 71% 30.41 in 10.0 mi NW 19.6 mph 24.2 mph N/A   Clear
9:33 AM -9.4 °F -35.2 °F -16.6 °F 71% 30.41 in - NW 21.9 mph 28.8 mph N/A   Clear
9:53 AM -9.4 °F -35.2 °F -18.4 °F 65% 30.41 in - NW 21.9 mph 27.6 mph N/A   Clear
10:14 AM -9.4 °F -34.1 °F -18.4 °F 65% 30.42 in - NW 19.6 mph 29.9 mph N/A   Clear
10:34 AM -9.4 °F -35.2 °F -18.4 °F 65% 30.42 in - NW 21.9 mph 26.5 mph N/A   Clear
10:53 AM -9.4 °F -35.8 °F -18.4 °F 65% 30.43 in - NW 23.0 mph 29.9 mph N/A   Clear
11:13 AM -7.6 °F -33.9 °F -16.6 °F 65% 30.43 in - NW 24.2 mph 31.1 mph N/A   Unknown
11:34 AM -7.6 °F -32.9 °F -16.6 °F 65% 30.43 in - NW 21.9 mph 28.8 mph N/A   Unknown
11:53 AM -7.6 °F -32.3 °F -14.8 °F 71% 30.43 in 7.0 mi NW 20.7 mph 24.2 mph N/A   Scattered Clouds
12:14 PM -7.6 °F -31.1 °F -16.6 °F 65% 30.43 in 10.0 mi NW 18.4 mph 26.5 mph N/A   Clear
12:33 PM -7.6 °F -29.1 °F -14.8 °F 71% 30.43 in 7.0 mi WNW 15.0 mph 24.2 mph N/A   Scattered Clouds
12:53 PM -5.8 °F -27.5 °F -13.0 °F 71% 30.43 in 5.0 mi WNW 16.1 mph 23.0 mph N/A   Haze
1:13 PM -4.0 °F -24.5 °F -13.0 °F 65% 30.43 in 7.0 mi WNW 15.0 mph - N/A   Scattered Clouds
1:33 PM -4.0 °F -25.2 °F -13.0 °F 65% 30.42 in 10.0 mi NW 16.1 mph 21.9 mph N/A   Scattered Clouds
1:54 PM -4.0 °F -23.7 °F -13.0 °F 65% 30.42 in 7.0 mi WNW 13.8 mph 23.0 mph N/A   Scattered Clouds
2:13 PM -4.0 °F -24.5 °F -13.0 °F 65% 30.41 in 7.0 mi WNW 15.0 mph 23.0 mph N/A   Scattered Clouds
2:33 PM -4.0 °F -24.5 °F -13.0 °F 65% 30.41 in 10.0 mi WNW 15.0 mph 23.0 mph N/A   Clear
2:54 PM -4.0 °F -25.2 °F -13.0 °F 65% 30.41 in 10.0 mi WNW 16.1 mph 21.9 mph N/A   Clear
3:13 PM -4.0 °F -23.7 °F -13.0 °F 65% 30.41 in 10.0 mi NW 13.8 mph 23.0 mph N/A   Clear
3:33 PM -4.0 °F -23.0 °F -13.0 °F 65% 30.41 in 10.0 mi WNW 12.7 mph 18.4 mph N/A   Clear
3:54 PM -4.0 °F -23.7 °F -13.0 °F 65% 30.41 in 7.0 mi WNW 13.8 mph 18.4 mph N/A   Scattered Clouds
4:13 PM -4.0 °F -23.7 °F -13.0 °F 65% 30.42 in 10.0 mi WNW 13.8 mph 19.6 mph N/A   Clear
4:34 PM -4.0 °F -23.0 °F -13.0 °F 65% 30.42 in 7.0 mi WNW 12.7 mph - N/A   Clear
4:53 PM -4.0 °F -21.2 °F -14.8 °F 60% 30.42 in 10.0 mi WNW 10.4 mph - N/A   Clear
5:13 PM -4.0 °F -22.1 °F -13.0 °F 65% 30.41 in 10.0 mi WNW 11.5 mph - N/A   Clear
5:33 PM -4.0 °F -20.2 °F -13.0 °F 65% 30.41 in 10.0 mi WNW 9.2 mph - N/A   Clear
5:53 PM -5.8 °F -22.4 °F -14.8 °F 65% 30.41 in 10.0 mi WNW 9.2 mph - N/A   Clear
6:14 PM -7.6 °F -25.7 °F -14.8 °F 71% 30.41 in 10.0 mi WNW 10.4 mph - N/A   Clear
6:33 PM -7.6 °F -24.6 °F -14.8 °F 71% 30.41 in 10.0 mi WNW 9.2 mph - N/A   Clear
6:53 PM -7.6 °F -23.4 °F -14.8 °F 71% 30.42 in 10.0 mi WNW 8.1 mph - N/A   Clear
7:14 PM -7.6 °F -20.6 °F -14.8 °F 71% 30.42 in 10.0 mi West 5.8 mph - N/A   Clear
7:33 PM -7.6 °F -18.8 °F -14.8 °F 71% 30.42 in 10.0 mi West 4.6 mph - N/A   Clear
7:53 PM -7.6 °F -22.1 °F -16.6 °F 65% 30.42 in 10.0 mi West 6.9 mph - N/A   Clear
8:14 PM -7.6 °F -20.6 °F -14.8 °F 71% 30.41 in 10.0 mi West 5.8 mph - N/A   Clear
8:33 PM -7.6 °F -20.6 °F -16.6 °F 65% 30.41 in 10.0 mi West 5.8 mph - N/A   Clear
8:53 PM -7.6 °F -23.4 °F -16.6 °F 65% 30.41 in 10.0 mi WSW 8.1 mph - N/A   Clear
9:14 PM -7.6 °F -20.6 °F -16.6 °F 65% 30.40 in 10.0 mi WSW 5.8 mph - N/A   Clear
9:33 PM -9.4 °F -20.9 °F -16.6 °F 71% 30.40 in 10.0 mi West 4.6 mph - N/A   Clear
9:53 PM -9.4 °F -22.7 °F -16.6 °F 71% 30.40 in 10.0 mi West 5.8 mph - N/A   Clear
10:13 PM -7.6 °F -22.1 °F -14.8 °F 71% 30.40 in 10.0 mi WSW 6.9 mph - N/A   Clear
10:34 PM -9.4 °F -25.6 °F -16.6 °F 71% 30.38 in 10.0 mi West 8.1 mph - N/A   Clear
10:53 PM -7.6 °F -23.4 °F -14.8 °F 71% 30.38 in 10.0 mi West 8.1 mph - N/A   Clear
11:13 PM -9.4 °F -26.8 °F -16.6 °F 71% 30.37 in 10.0 mi West 9.2 mph - N/A   Clear
11:33 PM -9.4 °F -25.6 °F -16.6 °F 71% 30.36 in 10.0 mi West 8.1 mph - N/A   Clear
11:53 PM -7.6 °F -23.4 °F -14.8 °F 71% 30.36 in 10.0 mi West 8.1 mph - N/A   Clear